Starlink 34499

operational
NORAD ID: 64709 Int'l Des: 2025-142 Owner: SPXS Country: US Constellation: starlink
LEOCIRCULAR

关于 Starlink 34499

正在加载描述...

实时位置

正在加载3D地球...

即将过境

高度历史

Altitude vs Time

uPlot chart will show altitude changes over time

两行轨道根数

1 64709U 25142P 25340.95730639 .00009686 00000-0 87055-3 0 9993
2 64709 70.0004 188.1121 0002973 261.1500 98.9321 14.95921150 25575
Epoch: Dec 6, 2025 • Age: 18 hours

当前状态

高度 581.7 km
速度 7.57 km/s
星下点 18.25°N, 22.45°E
发射日期 Jun 28, 2025
运行时间 0.4 years
类型 internet

技术详情

分类 Payload
质量 575.00 kg
干质量 530.00 kg
总质量 575.00 kg
长度 0.30 m
直径 4.10 m
跨度 29.00 m
形状 Box + pan
制造商 SPXS
平台类型 Starlink V2MO
阶段状态 In Orbit
所有者/国家 SPXS/US

大型星座

Loading constellations...